Ely, MN

12:21 PM CST on December 07, 2016 (GMT -0600)
Ely Municipal

Weather History for KELO - September, 2012

Change the Weather History Date:

Thursday, September 13, 2012

  Actual Average Record
Temperature  
Mean Temperature 50 °F -  
Max Temperature 62 °F 66 °F 80 °F (2004)
Min Temperature 39 °F 45 °F 33 °F (1996)
Degree Days  
Heating Degree Days 14    
Moisture  
Dew Point 34 °F    
Average Humidity 55    
Maximum Humidity 93    
Minimum Humidity 27    
Precipitation  
Precipitation 0.00 in - - ()
Sea Level Pressure  
Sea Level Pressure 30.22 in    
Wind  
Wind Speed 6 mph (West)    
Max Wind Speed 17 mph    
Max Gust Speed 25 mph    
Visibility 10 miles    
Events      
Averages and records for this station are not official NWS values.
T = Trace of Precipitation, MM = Missing Value Source: NWS Daily Summary

Daily Weather History Graph

Daily Weather History Graph

Search for Another Location

Airport or City:

Trip Planner

Search our weather history database for the weather conditions in past years. The results will help you decide how hot, cold, wet, or windy it might be!

Date:

Astronomy

Sep. 13, 2012 Rise Set
Actual Time 6:42 AM CDT 7:22 PM CDT
Civil Twilight 6:11 AM CDT 7:53 PM CDT
Nautical Twilight 5:34 AM CDT 8:30 PM CDT
Astronomical Twilight 4:55 AM CDT 9:09 PM CDT
Moon 3:53 AM CDT (9/13) 5:51 PM CDT (9/13)
Length of Visible Light 13h 42m
Length of Day
12h 40m
Waning Crescent, 7% of the Moon is Illuminated
Sep 13
Waning Crescent
Sep 15
New
Sep 22
First Quarter
Sep 29
Full
Oct 8
Last Quarter

Hourly Weather History & Observations

Time (CDT) Temp. Windchill Dew Point Humidity Pressure Visibility Wind Dir Wind Speed Gust Speed Precip Events Conditions
12:13 AM 51.8 °F - 33.8 °F 50% 30.12 in 10.0 mi SW 5.8 mph - N/A   Clear
12:33 AM 50.0 °F - 33.8 °F 54% 30.11 in 10.0 mi SW 5.8 mph - N/A   Clear
12:52 AM 50.0 °F - 33.8 °F 54% 30.11 in 10.0 mi SW 5.8 mph - N/A   Clear
1:13 AM 50.0 °F - 33.8 °F 54% 30.12 in 10.0 mi WSW 4.6 mph - N/A   Clear
1:33 AM 50.0 °F - 33.8 °F 54% 30.12 in 10.0 mi SW 3.5 mph - N/A   Clear
1:52 AM 48.2 °F - 33.8 °F 58% 30.12 in 10.0 mi SW 3.5 mph - N/A   Clear
2:13 AM 46.4 °F 44.3 °F 33.8 °F 62% 30.13 in 10.0 mi SSW 4.6 mph - N/A   Clear
2:33 AM 46.4 °F 43.5 °F 33.8 °F 62% 30.13 in 10.0 mi SSW 5.8 mph - N/A   Clear
2:52 AM 46.4 °F 43.5 °F 35.6 °F 66% 30.14 in 10.0 mi SW 5.8 mph - N/A   Clear
3:13 AM 46.4 °F 42.9 °F 35.6 °F 66% 30.15 in 10.0 mi SW 6.9 mph - N/A   Clear
3:33 AM 48.2 °F - 35.6 °F 62% 30.15 in 10.0 mi WSW 5.8 mph - N/A   Clear
3:52 AM 48.2 °F - 35.6 °F 62% 30.15 in 10.0 mi WSW 4.6 mph - N/A   Clear
4:13 AM 46.4 °F 44.3 °F 35.6 °F 66% 30.16 in 10.0 mi SW 4.6 mph - N/A   Clear
4:33 AM 44.6 °F 42.2 °F 35.6 °F 71% 30.16 in 10.0 mi SW 4.6 mph - N/A   Clear
4:52 AM 46.4 °F 44.3 °F 35.6 °F 66% 30.16 in 10.0 mi WSW 4.6 mph - N/A   Clear
5:13 AM 44.6 °F 42.2 °F 35.6 °F 71% 30.17 in 10.0 mi WSW 4.6 mph - N/A   Clear
5:33 AM 44.6 °F 42.2 °F 35.6 °F 71% 30.17 in 10.0 mi WSW 4.6 mph - N/A   Scattered Clouds
5:52 AM 44.6 °F 42.2 °F 35.6 °F 71% 30.17 in 10.0 mi West 4.6 mph - N/A   Scattered Clouds
6:13 AM 44.6 °F 41.4 °F 35.6 °F 71% 30.18 in 10.0 mi West 5.8 mph - N/A   Mostly Cloudy
6:33 AM 46.4 °F 43.5 °F 35.6 °F 66% 30.19 in 10.0 mi WSW 5.8 mph - N/A   Overcast
6:52 AM 46.4 °F 43.5 °F 35.6 °F 66% 30.20 in 10.0 mi WSW 5.8 mph - N/A   Overcast
7:13 AM 44.6 °F 42.2 °F 35.6 °F 71% 30.20 in 10.0 mi West 4.6 mph - N/A   Mostly Cloudy
7:33 AM 44.6 °F - 35.6 °F 71% 30.21 in 10.0 mi Calm Calm - N/A   Mostly Cloudy
7:52 AM 44.6 °F - 35.6 °F 71% 30.21 in 10.0 mi Calm Calm - N/A   Scattered Clouds
8:13 AM 46.4 °F 44.3 °F 37.4 °F 71% 30.21 in 10.0 mi WSW 4.6 mph - N/A   Mostly Cloudy
8:32 AM 46.4 °F 44.3 °F 37.4 °F 71% 30.22 in 10.0 mi West 4.6 mph - N/A   Mostly Cloudy
8:53 AM 48.2 °F - 37.4 °F 66% 30.23 in 10.0 mi West 4.6 mph - N/A   Overcast
9:13 AM 50.0 °F - 39.2 °F 66% 30.24 in 10.0 mi West 3.5 mph - N/A   Overcast
9:33 AM 51.8 °F - 39.2 °F 62% 30.24 in 10.0 mi WNW 8.1 mph - N/A   Overcast
9:53 AM 51.8 °F - 39.2 °F 62% 30.24 in 10.0 mi WNW 3.5 mph - N/A   Overcast
10:13 AM 53.6 °F - 41.0 °F 62% 30.23 in 10.0 mi WNW 6.9 mph - N/A   Scattered Clouds
10:33 AM 55.4 °F - 41.0 °F 58% 30.24 in 10.0 mi NW 8.1 mph 18.4 mph N/A   Clear
10:53 AM 55.4 °F - 39.2 °F 54% 30.24 in 10.0 mi WNW 11.5 mph 17.3 mph N/A   Clear
11:13 AM 57.2 °F - 37.4 °F 48% 30.24 in 10.0 mi WNW 13.8 mph 18.4 mph N/A   Clear
11:33 AM 57.2 °F - 37.4 °F 48% 30.24 in 10.0 mi WNW 11.5 mph 18.4 mph N/A   Clear
11:53 AM 59.0 °F - 33.8 °F 39% 30.25 in 10.0 mi West 13.8 mph 25.3 mph N/A   Clear
12:13 PM 59.0 °F - 32.0 °F 36% 30.25 in 10.0 mi NW 15.0 mph 23.0 mph N/A   Clear
12:33 PM 60.8 °F - 33.8 °F 36% 30.24 in 10.0 mi West 13.8 mph 18.4 mph N/A   Clear
12:53 PM 60.8 °F - 32.0 °F 34% 30.24 in 10.0 mi West 15.0 mph 25.3 mph N/A   Scattered Clouds
1:13 PM 60.8 °F - 28.4 °F 29% 30.24 in 10.0 mi NW 12.7 mph 23.0 mph N/A   Clear
1:33 PM 62.6 °F - 28.4 °F 27% 30.24 in 10.0 mi WNW 16.1 mph 25.3 mph N/A   Clear
1:53 PM 62.6 °F - 30.2 °F 30% 30.23 in 10.0 mi WNW 13.8 mph 23.0 mph N/A   Clear
2:13 PM 62.6 °F - 28.4 °F 27% 30.23 in 10.0 mi WNW 15.0 mph 20.7 mph N/A   Clear
2:33 PM 60.8 °F - 28.4 °F 29% 30.23 in 10.0 mi WNW 17.3 mph 25.3 mph N/A   Clear
2:53 PM 62.6 °F - 30.2 °F 30% 30.23 in 10.0 mi WNW 10.4 mph 20.7 mph N/A   Scattered Clouds
3:13 PM 62.6 °F - 30.2 °F 30% 30.23 in 10.0 mi West 10.4 mph 17.3 mph N/A   Scattered Clouds
3:33 PM 62.6 °F - 30.2 °F 30% 30.23 in 10.0 mi West 17.3 mph 21.9 mph N/A   Scattered Clouds
3:53 PM 60.8 °F - 28.4 °F 29% 30.23 in 10.0 mi WNW 15.0 mph 21.9 mph N/A   Clear
4:13 PM 60.8 °F - 30.2 °F 31% 30.23 in 10.0 mi WNW 10.4 mph 16.1 mph N/A   Clear
4:33 PM 59.0 °F - 30.2 °F 34% 30.23 in 10.0 mi WNW 8.1 mph - N/A   Scattered Clouds
4:53 PM 60.8 °F - 30.2 °F 31% 30.23 in 10.0 mi WNW 8.1 mph - N/A   Mostly Cloudy
5:13 PM 60.8 °F - 28.4 °F 29% 30.23 in 10.0 mi NW 8.1 mph - N/A   Mostly Cloudy
5:33 PM 60.8 °F - 28.4 °F 29% 30.24 in 10.0 mi NW 9.2 mph - N/A   Scattered Clouds
5:53 PM 60.8 °F - 28.4 °F 29% 30.24 in 10.0 mi NW 6.9 mph - N/A   Clear
6:12 PM 60.8 °F - 28.4 °F 29% 30.24 in 10.0 mi NW 8.1 mph - N/A   Clear
6:33 PM 57.2 °F - 28.4 °F 33% 30.24 in 10.0 mi NW 5.8 mph - N/A   Clear
6:53 PM 57.2 °F - 28.4 °F 33% 30.24 in 10.0 mi Calm Calm - N/A   Clear
7:12 PM 55.4 °F - 30.2 °F 38% 30.25 in 10.0 mi Calm Calm - N/A   Clear
7:33 PM 53.6 °F - 33.8 °F 47% 30.25 in 10.0 mi Calm Calm - N/A   Clear
7:53 PM 50.0 °F - 35.6 °F 58% 30.25 in 10.0 mi Calm Calm - N/A   Clear
8:12 PM 48.2 °F - 35.6 °F 62% 30.26 in 10.0 mi Calm Calm - N/A   Clear
8:33 PM 46.4 °F - 37.4 °F 71% 30.27 in 10.0 mi Calm Calm - N/A   Clear
8:53 PM 44.6 °F - 35.6 °F 71% 30.28 in 10.0 mi Calm Calm - N/A   Clear
9:12 PM 46.4 °F 45.2 °F 35.6 °F 66% 30.28 in 10.0 mi WNW 3.5 mph - N/A   Clear
9:33 PM 44.6 °F - 35.6 °F 71% 30.28 in 10.0 mi Calm Calm - N/A   Clear
9:53 PM 44.6 °F - 35.6 °F 71% 30.29 in 10.0 mi Calm Calm - N/A   Clear
10:13 PM 42.8 °F - 37.4 °F 81% 30.29 in 10.0 mi Calm Calm - N/A   Clear
10:33 PM 41.0 °F 39.0 °F 37.4 °F 87% 30.30 in 10.0 mi West 3.5 mph - N/A   Clear
10:53 PM 39.2 °F 35.9 °F 37.4 °F 93% 30.30 in 10.0 mi WNW 4.6 mph - N/A   Clear
11:13 PM 42.8 °F 41.1 °F 37.4 °F 81% 30.31 in 10.0 mi WNW 3.5 mph - N/A   Clear
11:33 PM 42.8 °F - 35.6 °F 76% 30.30 in 10.0 mi Calm Calm - N/A   Clear
11:53 PM 39.2 °F - 35.6 °F 87% 30.30 in 10.0 mi Calm Calm - N/A   Clear